784  
ASUS41 KALY 272310  
RWRALY  
 
NEW YORK STATE HOURLY WEATHER ROUNDUP  
NATIONAL WEATHER SERVICE ALBANY NY  
700 PM EDT TUE SEP 27 2022  
 
NOTE: "FAIR" INDICATES FEW OR NO CLOUDS BELOW 12,000 FEET WITH NO  
SIGNIFICANT WEATHER AND/OR NO S TO VISIBILITY
.  
 
NYZ032-033-038>043-046>054-057>066-NYZ062>081-082-084-280000-  
EAST  
 
 
CITY SKY/WX TMP DP RH WIND PRES REMARKS
 
ALBANY MOCLDY 58 52 80 W6 29.85R  
GLENS FALLS MOCLDY 53 51 93 S3 29.84R  
POUGHKEEPSIE CLOUDY 63 48 58 SW6 29.88R  
NEWBURGH MOCLDY 61 48 63 W8 29.89S  
MONTGOMERY PTCLDY 57 47 69 W5 29.89R  
WHITE PLAINS CLEAR 60 46 59 W5 29.90R  
ISLIP PTCLDY 63 48 58 NW6 29.89R  
NEW YORK CITY PTCLDY 67 45 45 NW10 29.90R  
CENTRAL PARK CLEAR 65 45 48 W5 29.93R  

 
 
NYZ005>009-017-018-044>046-055-056-280000-  
CENTRAL  
 
 
CITY SKY/WX TMP DP RH WIND PRES REMARKS
 
FULTON LGT RAIN 56 54 93 CALM 29.84S  
SYRACUSE LGT RAIN 56 52 86 S7 29.86R  
ROME LGT RAIN 53 52 96 SE5 29.87R  
ELMIRA MOCLDY 53 50 89 CALM 29.89R  
BINGHAMTON RAIN 49 47 93 SW5 29.89R  
MONTICELLO CLOUDY 55 47 74 W6 29.91R  

 
 
NYZ026>034-041>043-087-280000-  
NORTH  
 
 
CITY SKY/WX TMP DP RH WIND PRES REMARKS
 
WATERTOWN LGT RAIN 59 53 80 SW7 29.81R  
FORT DRUM NOT AVBL  
OGDENSBURG MOCLDY 59 54 82 SW7G14 29.77R  
MASSENA CLOUDY 57 53 86 SW5 29.80R  
SARANAC LAKE CLOUDY 52 50 93 SW5 29.80R  
PLATTSBURGH CLOUDY 57 52 83 S3 29.79R  

 
 
NYZ001>004-010>016-019>021-085-280000-  
WEST  
 
 
CITY SKY/WX TMP DP RH WIND PRES REMARKS
 
NIAGARA FALLS CLOUDY 57 53 86 SW12 29.87R  
BUFFALO LGT RAIN 55 52 89 W8 29.87R  
DUNKIRK CLOUDY 57 49 74 W12G18 29.91R  
JAMESTOWN RAIN 48 47 96 SW8 29.94R FOG  
WELLSVILLE MOCLDY 50 44 80 W6 29.93R  
ROCHESTER MOCLDY 57 50 77 W15G23 29.86R  
PENN YAN MOCLDY 57 47 69 SW12 29.88R  

 
 
KEY  
WCI = WIND CHILL INDEX  
VSB = VISIBILITY  
HX = HEAT INDEX  

 
 
 
CLICK HERE TO GO TO PREVIOUS BULLETINS.

The Nexlab NY Page
The Nexlab VT Page
The Nexlab MA Page
The Nexlab CT Page Main Text Page